This is the latest recevied weather packets stored in our database for station/object W0AVQ. If no packets are shown the sender has not sent any weather packets the latest 10 day(s).
| Time | Temp. | Humidity | Pressure | Rain* | Wind** | Luminosity | Snow |
|---|---|---|---|---|---|---|---|
| 1777832643 | 20° C | 47% | 1019.8 hPa | 0 mm | - | 57 W/m² | - |
| 1777832340 | 19.44° C | 46% | 1019.9 hPa | 0 mm | - | 56 W/m² | - |
| 1777832037 | 18.89° C | 50% | 1020.1 hPa | 0 mm | - | 57 W/m² | - |
| 1777831733 | 18.89° C | 48% | 1020.1 hPa | 0 mm | - | 57 W/m² | - |
| 1777831431 | 18.89° C | 48% | 1020.2 hPa | 0 mm | - | 57 W/m² | - |
| 1777831127 | 19.44° C | 46% | 1020.4 hPa | 0 mm | - | 57 W/m² | - |
| 1777830826 | 18.89° C | 47% | 1020.5 hPa | 0 mm | - | 57 W/m² | - |
| 1777830521 | 19.44° C | 49% | 1020.6 hPa | 0 mm | - | 58 W/m² | - |
| 1777830219 | 18.89° C | 51% | 1021 hPa | 0 mm | - | 65 W/m² | - |
| 1777829914 | 18.89° C | 50% | 1020.9 hPa | 0 mm | - | 71 W/m² | - |
| 1777829611 | 18.89° C | 50% | 1021.1 hPa | 0 mm | - | 77 W/m² | - |
| 1777829308 | 18.89° C | 49% | 1021.2 hPa | 0 mm | - | 85 W/m² | - |
| 1777829006 | 18.89° C | 48% | 1021.2 hPa | 0 mm | - | 92 W/m² | - |
| 1777828701 | 18.33° C | 48% | 1021.6 hPa | 0 mm | - | 67 W/m² | - |
| 1777828398 | 17.78° C | 52% | 1021.5 hPa | 0 mm | - | 74 W/m² | - |
| 1777828096 | 18.33° C | 49% | 1021.5 hPa | 0 mm | - | 112 W/m² | - |
| 1777827792 | 18.33° C | 52% | 1021.5 hPa | 0 mm | - | 122 W/m² | - |
| 1777827489 | 18.33° C | 51% | 1021.3 hPa | 0 mm | - | 136 W/m² | - |
| 1777827187 | 18.33° C | 52% | 1021.4 hPa | 0 mm | - | 157 W/m² | - |
| 1777826882 | 18.33° C | 52% | 1021.5 hPa | 0 mm | - | 148 W/m² | - |
| 1777826580 | 18.33° C | 50% | 1021.8 hPa | 0 mm | - | 85 W/m² | - |
| 1777826276 | 18.33° C | 54% | 1021.7 hPa | 0 mm | - | 87 W/m² | - |
| 1777825974 | 17.22° C | 54% | 1021.5 hPa | 0 mm | - | 154 W/m² | - |
| 1777825670 | 17.22° C | 53% | 1021.9 hPa | 0 mm | - | 161 W/m² | - |
| 1777825369 | 17.22° C | 56% | 1021.6 hPa | 0 mm | - | 125 W/m² | - |
* Rain latest hour (hover to see other rain measurements)
** Current wind speed in m/s (hover to see current wind gust speed)